TimeMDT,TemperatureF,Dew PointF,Humidity,Sea Level PressureIn,VisibilityMPH,Wind Direction,Wind SpeedMPH,Gust SpeedMPH,PrecipitationIn,Events,Conditions,WindDirDegrees,DateUTC
12:53 AM,43.0,24.1,47,29.99,10.0,East,5.8,-,N/A,,Clear,90,2012-10-15 06:53:00
1:53 AM,43.0,23.0,45,29.96,10.0,Calm,Calm,-,N/A,,Clear,0,2012-10-15 07:53:00
2:53 AM,45.0,24.1,44,29.94,10.0,Calm,Calm,-,N/A,,Clear,0,2012-10-15 08:53:00
3:53 AM,45.0,24.1,44,29.91,10.0,Calm,Calm,-,N/A,,Clear,0,2012-10-15 09:53:00
4:53 AM,39.9,27.0,60,29.92,10.0,Calm,Calm,-,N/A,,Clear,0,2012-10-15 10:53:00
6:53 AM,39.9,25.0,55,29.97,10.0,Calm,Calm,-,N/A,,Clear,0,2012-10-15 12:53:00
7:53 AM,42.1,23.0,47,29.94,10.0,South,5.8,-,N/A,,Clear,190,2012-10-15 13:53:00
8:53 AM,46.0,24.1,42,29.93,10.0,Calm,Calm,-,N/A,,Clear,0,2012-10-15 14:53:00
9:53 AM,46.0,28.0,50,29.92,10.0,Calm,Calm,-,N/A,,Clear,0,2012-10-15 15:53:00
10:53 AM,48.9,28.9,46,29.94,10.0,NW,3.5,-,N/A,,Clear,320,2012-10-15 16:53:00
11:53 AM,54.0,30.9,41,29.89,10.0,Calm,Calm,-,N/A,,Clear,0,2012-10-15 17:53:00
12:53 PM,63.0,28.0,27,29.83,10.0,Calm,Calm,-,N/A,,Clear,0,2012-10-15 18:53:00
1:53 PM,66.9,25.0,21,29.78,10.0,South,4.6,-,N/A,,Partly Cloudy,170,2012-10-15 19:53:00
2:53 PM,63.0,30.9,30,29.77,10.0,North,8.1,-,N/A,,Overcast,360,2012-10-15 20:53:00
3:53 PM,66.9,26.1,21,29.78,10.0,NNW,9.2,-,N/A,,Overcast,330,2012-10-15 21:53:00
4:53 PM,64.0,30.9,29,29.81,10.0,North,8.1,-,N/A,,Scattered Clouds,10,2012-10-15 22:53:00
5:53 PM,59.0,36.0,42,29.83,10.0,NE,5.8,-,0.00,,Mostly Cloudy,50,2012-10-15 23:53:00
6:53 PM,54.0,33.1,45,29.87,10.0,NE,3.5,-,N/A,,Scattered Clouds,50,2012-10-16 00:53:00
7:53 PM,50.0,32.0,50,29.88,10.0,Calm,Calm,-,N/A,,Partly Cloudy,0,2012-10-16 01:53:00
8:53 PM,50.0,32.0,50,29.87,10.0,South,5.8,-,N/A,,Clear,170,2012-10-16 02:53:00
9:53 PM,52.0,30.0,43,29.86,10.0,SSE,9.2,-,N/A,,Mostly Cloudy,160,2012-10-16 03:53:00
10:53 PM,50.0,30.0,46,29.85,10.0,SSE,5.8,-,N/A,,Overcast,160,2012-10-16 04:53:00
11:53 PM,50.0,30.9,48,29.83,10.0,SSE,6.9,-,N/A,,Scattered Clouds,160,2012-10-16 05:53:00